• Join FlightAware (Why Join?)
  • Login
  • US Flag 
01:11PM EDT


 

Airport Tracker/Info


-or-


 

Live Flight TrackerFlight Track Log ✈ AAL1714 ✈ 23-Apr-2013 ✈ KLAX - KLAS

Flight Track Log - Related Links

Times and Time Zones

All times are in EDT time to prevent confusion due to time zone crossing. See the AAL1714 flight status page for this flight to view local times or setup timezone preferences in your user account.

Time Position Orientation Groundspeed Altitude Reporting Facility
EDT Latitude Longitude Course Direction KTS MPH feet Rate Location/Type
06:47PM 33.9342 -118.4539 59° Northeast 177 204 1,700  Level Los Angeles Center
06:48PM 33.9097 -118.5392 251° West 252 290 3,600 2,220 Climbing Los Angeles Center
06:49PM 34.0870 -118.1494 54° Northeast  Level FlightAware Approximate
06:49PM 33.8500 -118.5711 204° Southwest 268 308 6,300  Level Los Angeles Center
06:50PM 34.1429 -118.0476 59° Northeast  Level FlightAware Approximate
06:50PM 33.8369 -118.4897 101° East 278 320 9,200  Level Los Angeles Center
06:51PM 34.1952 -117.9429 59° Northeast  Level FlightAware Approximate
06:51PM 33.9058 -118.4478 27° Northeast 300 345 11,000  Level Los Angeles Center
06:52PM 34.2556 -117.8554 59° Northeast  Level FlightAware Approximate
06:52PM 33.9711 -118.3650 46° Northeast 343 395 14,000  Level Los Angeles Center
06:53PM 34.0150 -118.2889 55° Northeast 343 395 16,500 2,640 Climbing Los Angeles Center
06:54PM 34.0831 -118.1669 56° Northeast 363 418 19,500 2,880 Climbing Los Angeles Center
06:55PM 34.1583 -118.0350 55° Northeast 395 455 22,500 2,580 Climbing Los Angeles Center
06:56PM 34.2228 -117.9217 55° Northeast 407 468 24,900 1,980 Climbing Los Angeles Center
06:57PM 34.2883 -117.8042 56° Northeast 419 482 26,600 960 Climbing Los Angeles Center
06:59PM 34.3569 -117.6822 56° Northeast 434 499 27,000 120 Climbing Los Angeles Center
07:00PM 34.4286 -117.5511 56° Northeast 441 507 27,000  Level Los Angeles Center
07:01PM 34.5131 -117.3981 56° Northeast 456 525 27,000  Level Los Angeles Center
07:02PM 34.5844 -117.2681 56° Northeast 466 536 27,000  Level Los Angeles Center
07:03PM 34.6694 -117.1139 56° Northeast 464 534 27,000  Level Los Angeles Center
07:04PM 34.7403 -116.9842 56° Northeast 464 534 27,000  Level Los Angeles Center
07:05PM 34.8103 -116.8542 57° Northeast 462 532 27,000  Level Los Angeles Center
07:06PM 34.8822 -116.7239 56° Northeast 466 536 27,000 -60 Level Los Angeles Center
07:07PM 34.9536 -116.5914 57° Northeast 469 540 26,900 -900 Descending Los Angeles Center
07:08PM 35.0558 -116.4592 47° Northeast 444 511 25,200 -1,440 Descending Los Angeles Center
07:09PM 35.1394 -116.3556 45° Northeast 434 499 24,000 -1,500 Descending Los Angeles Center
07:10PM 35.2189 -116.2542 46° Northeast 421 484 22,100 -1,860 Descending Los Angeles Center
07:11PM 35.2986 -116.1547 45° Northeast 411 473 20,200 -1,560 Descending Los Angeles Center
07:12PM 35.3703 -116.0636 46° Northeast 374 430 18,900 -1,380 Descending Los Angeles Center
07:13PM 35.4233 -115.9981 45° Northeast 354 407 17,800 -1,560 Descending Los Angeles Center
07:13PM 35.4481 -115.9617 50° Northeast 348 400 17,300 -1,380 Descending Los Angeles Center
07:14PM 35.5003 -115.9028 43° Northeast 333 383 16,300 -1,200 Descending Los Angeles Center
07:15PM 35.5683 -115.8178 45° Northeast 304 350 15,000 -1,140 Descending Los Angeles Center
07:16PM 35.6219 -115.7450 48° Northeast 291 335 13,900 -1,020 Descending Los Angeles Center
07:17PM 35.6644 -115.6650 57° Northeast 278 320 12,900 -1,080 Descending Los Angeles Center
07:18PM 35.6669 -115.5828 88° East 270 311 11,900 -1,080 Descending Los Angeles Center
07:18PM 35.6703 -115.5733 67° East 266 306 11,800 -1,260 Descending Los Angeles Center
07:19PM 35.7064 -115.4828 64° Northeast 253 291 10,300 -1,260 Descending Los Angeles Center
07:20PM 35.7458 -115.4108 56° Northeast 251 289 9,300 -960 Descending Los Angeles Center
07:21PM 35.7783 -115.3481 57° Northeast 248 285 8,600 -1,020 Descending Los Angeles Center
07:22PM 35.8358 -115.3056 31° Northeast 233 268 7,500 -1,140 Descending Los Angeles Center